Regional Weather Roundup
Issued by NWS Sioux Falls, SD

Home | Current Version | Previous Version | Graphics & Text | Print | Product List | Glossary Off
Versions: 1 2 3 4 5 6 7 8 9 10 11 12 13 14 15 16 17 18 19 20 21 22 23 24 25 26 27 28 29 30 31 32 33 34 35 36 37 38 39 40 41 42 43 44 45 46 47 48 49 50

000
ASUS43 KFSD 041310
RWRFSD

WEATHER ROUNDUP FOR SE SOUTH DAKOTA/SW MINNESOTA/NW IOWA
NATIONAL WEATHER SERVICE SIOUX FALLS SD
800 AM CDT SAT JUL 04 2015

NOTE: "FAIR" INDICATES FEW OR NO CLOUDS BELOW 12,000 FEET WITH NO
SIGNIFICANT WEATHER AND OR OBSTRUCTIONS TO VISIBILITY.


SDZ038>040-050-052>070-041400-
SOUTHEAST SOUTH DAKOTA

CITY           SKY/WX    TMP DP  RH WIND       PRES   REMARKS
BROOKINGS      MOSUNNY   64  61  88 S6        29.97S
CHAMBERLAIN    MOSUNNY   67  65  91 SE3       29.92S
HURON          MOSUNNY   65  63  93 S8        29.91S FOG
MADISON        FAIR      64  64 100 S6        29.97S
MITCHELL       MOSUNNY   67  64  90 S9        29.94S
SIOUX FALLS    SUNNY     65  62  90 S5        29.97R FOG
WINNER         FAIR      70  60  70 S15       29.91S
YANKTON        SUNNY     63  61  94 CALM      29.96S
$$

MNZ071-072-080-081-089-090-097-098-041400-
SOUTHWEST MINNESOTA

CITY           SKY/WX    TMP DP  RH WIND       PRES   REMARKS
FAIRMONT       SUNNY     64  55  72 SW3       29.97S
JACKSON        SUNNY     64  57  77 SW6       29.99R
LUVERNE        SUNNY     61  59  94 CALM      29.99R
MARSHALL       PTSUNNY   70  61  73 W6          N/A
MONTEVIDEO     SUNNY     70  64  83 CALM      29.94S HAZE
PIPESTONE      SUNNY     64  63  94 CALM      29.98S FOG
REDWOOD FALLS  SUNNY     69  63  81 W3        29.94F HAZE
TRACY          MOSUNNY   68  63  84 SW8       29.96S HAZE
WINDOM         MOSUNNY   64  59  82 SW6       29.98S HAZE
WORTHINGTON    SUNNY     64  57  77 SW7       29.98S
$$

IAZ001>003-012>014-020>022-031-032-NEZ013-014-SDZ071-041400-
NORTHWEST IOWA

CITY           SKY/WX    TMP DP  RH WIND       PRES   REMARKS
CHEROKEE       SUNNY     58  58 100 CALM      30.00R FOG
DENISON        SUNNY     57  55  94 MISG      29.99S
ESTHERVILLE    SUNNY     63  58  83 SW5       29.98S
LE MARS        SUNNY     61  59  94 CALM      30.00R FOG
ORANGE CITY    SUNNY     61  57  88 CALM      29.99S FOG
SHELDON        SUNNY     63  63 100 CALM      29.98R FOG
SIOUX CITY     SUNNY     62  57  83 E3        29.99S
SPENCER        SUNNY     61  55  81 CALM      29.99S
STORM LAKE     SUNNY     63  57  82 SW5       30.01S
$$

ABBREVIATIONS USED IN REMARKS
   TC - TEMPERATURE IN CELSIUS
  WCI - WIND CHILL INDEX
   HX - HEAT INDEX
  VSB - VISIBILITY




USA.gov is the U.S. government's official web portal to all federal, state and local government web resources and services.